| time (UTC) | temp C | wind direction | speed KPH | gust KPH | rain 1hr cm | rain 24hr cm | rain mn cm | humidity % | barometer mb |
| 20260504214551 | 25 | 116 | 6.4 | 22.5 | 0.00 | 0.00 | 0.00 | 65 | 1012.8 |
| 20260504213100 | 26 | 123 | 11.3 | 22.5 | 0.00 | 0.00 | 0.00 | 63 | 1012.8 |
| 20260504211549 | 26 | 116 | 8.0 | 20.9 | 0.00 | 0.00 | 0.00 | 62 | 1013.1 |
| 20260504210046 | 27 | 87 | 8.0 | 17.7 | 0.00 | 0.00 | 0.00 | 59 | 1013.0 |
| 20260504204559 | 26 | 113 | 8.0 | 16.1 | 0.00 | 0.00 | 0.00 | 61 | 1013.4 |
| 20260504203052 | 26 | 82 | 8.0 | 19.3 | 0.00 | 0.00 | 0.00 | 60 | 1013.3 |
| 20260504201546 | 26 | 79 | 3.2 | 16.1 | 0.00 | 0.00 | 0.00 | 59 | 1013.6 |
| 20260504200046 | 27 | 100 | 6.4 | 20.9 | 0.00 | 0.00 | 0.00 | 58 | 1013.8 |
| 20260504194551 | 27 | 113 | 8.0 | 22.5 | 0.00 | 0.00 | 0.00 | 57 | 1014.1 |
| 20260504193048 | 27 | 128 | 8.0 | 19.3 | 0.00 | 0.00 | 0.00 | 57 | 1014.2 |
| 20260504191547 | 27 | 124 | 6.4 | 16.1 | 0.00 | 0.00 | 0.00 | 59 | 1014.4 |
| 20260504190050 | 27 | 134 | 1.6 | 16.1 | 0.00 | 0.00 | 0.00 | 59 | 1014.7 |
| 20260504184547 | 27 | 113 | 9.7 | 20.9 | 0.00 | 0.00 | 0.00 | 58 | 1014.8 |
| 20260504183045 | 26 | 84 | 6.4 | 22.5 | 0.00 | 0.00 | 0.00 | 58 | 1015.0 |
| 20260504181550 | 26 | 129 | 8.0 | 22.5 | 0.00 | 0.00 | 0.00 | 58 | 1014.9 |
| 20260504180052 | 26 | 126 | 4.8 | 22.5 | 0.00 | 0.00 | 0.00 | 60 | 1015.2 |
| 20260504174550 | 26 | 70 | 6.4 | 17.7 | 0.00 | 0.00 | 0.00 | 59 | 1015.5 |
| 20260504173046 | 25 | 103 | 4.8 | 22.5 | 0.00 | 0.00 | 0.00 | 62 | 1015.7 |
| 20260504171554 | 25 | 99 | 4.8 | 16.1 | 0.00 | 0.00 | 0.00 | 61 | 1015.9 |
| 20260504081553 | 15 | 0 | 0.0 | 3.2 | 0.00 | 0.00 | 0.00 | 77 | 1017.3 |
| 20260504080112 | 15 | 127 | 0.0 | 1.6 | 0.00 | 0.00 | 0.00 | 79 | 1017.5 |
| 20260504044553 | 17 | 125 | 1.6 | 1.6 | 0.00 | 0.00 | 0.00 | 69 | 1019.6 |
| 20260504043052 | 17 | 124 | 0.0 | 4.8 | 0.00 | 0.00 | 0.00 | 68 | 1019.7 |
| 20260504041549 | 18 | 0 | 0.0 | 4.8 | 0.00 | 0.00 | 0.00 | 66 | 1019.8 |
| 20260504040113 | 18 | 110 | 1.6 | 11.3 | 0.00 | 0.00 | 0.00 | 65 | 1019.7 |
| 20260504034556 | 18 | 120 | 3.2 | 6.4 | 0.00 | 0.00 | 0.00 | 65 | 1019.5 |
| 20260504033049 | 18 | 122 | 1.6 | 4.8 | 0.00 | 0.00 | 0.00 | 64 | 1019.7 |
| 20260504031551 | 19 | 121 | 1.6 | 8.0 | 0.00 | 0.00 | 0.00 | 63 | 1019.5 |
| 20260504030051 | 19 | 122 | 1.6 | 8.0 | 0.00 | 0.00 | 0.00 | 62 | 1019.4 |
| 20260504024548 | 19 | 124 | 3.2 | 9.7 | 0.00 | 0.00 | 0.00 | 60 | 1019.1 |
| 20260504023059 | 20 | 120 | 3.2 | 11.3 | 0.00 | 0.00 | 0.00 | 58 | 1019.2 |
| 20260504021551 | 20 | 111 | 3.2 | 11.3 | 0.00 | 0.00 | 0.00 | 57 | 1019.1 |
| 20260504020048 | 21 | 121 | 3.2 | 9.7 | 0.00 | 0.00 | 0.00 | 55 | 1019.2 |
| 20260504014557 | 21 | 119 | 3.2 | 12.9 | 0.00 | 0.00 | 0.00 | 53 | 1019.0 |
| 20260504013058 | 21 | 129 | 4.8 | 17.7 | 0.00 | 0.00 | 0.00 | 52 | 1019.0 |
| 20260504011548 | 21 | 98 | 4.8 | 14.5 | 0.00 | 0.00 | 0.00 | 51 | 1019.0 |
| 20260504010054 | 22 | 96 | 6.4 | 12.9 | 0.00 | 0.00 | 0.00 | 50 | 1018.9 |
| 20260504004552 | 22 | 104 | 3.2 | 12.9 | 0.00 | 0.00 | 0.00 | 49 | 1018.9 |
| 20260504003055 | 23 | 110 | 8.0 | 16.1 | 0.00 | 0.00 | 0.00 | 47 | 1019.1 |
| 20260504001602 | 23 | 94 | 4.8 | 17.7 | 0.00 | 0.00 | 0.00 | 46 | 1018.9 |
| 20260504000108 | 24 | 113 | 4.8 | 16.1 | 0.00 | 0.00 | 0.00 | 44 | 1018.9 |
| 20260503234552 | 25 | 129 | 11.3 | 19.3 | 0.00 | 0.00 | 0.00 | 44 | 1019.0 |
| 20260503233048 | 25 | 106 | 6.4 | 14.5 | 0.00 | 0.00 | 0.00 | 42 | 1018.9 |
| 20260503231550 | 26 | 137 | 0.0 | 11.3 | 0.00 | 0.00 | 0.00 | 36 | 1019.1 |
| 20260503230050 | 25 | 118 | 6.4 | 12.9 | 0.00 | 0.00 | 0.00 | 36 | 1019.0 |
| 20260503224547 | 26 | 118 | 1.6 | 16.1 | 0.00 | 0.00 | 0.00 | 35 | 1019.1 |
| 20260503223050 | 26 | 109 | 3.2 | 11.3 | 0.00 | 0.00 | 0.00 | 35 | 1019.3 |
| 20260503221553 | 26 | 113 | 4.8 | 14.5 | 0.00 | 0.00 | 0.00 | 34 | 1019.6 |
| 20260503220052 | 26 | 112 | 6.4 | 14.5 | 0.00 | 0.00 | 0.00 | 33 | 1019.8 |